Voltar ao catálogo

SL-3 R/B

AtivoPO
NORAD 8027·ROCKET BODY·🇷🇺 Russia

Lançado Jul 11, 1975 de Plesetsk Cosmodrome

Loading…

Próximas Passagens (próximas 24 horas)

TLE

AtualizadoSource: Space-Track

Época: Sep 14, 2026, 09:14 UTC

1 08027U 75064B   26257.38473787  .00000102  00000-0  51750-4 0  9993
2 08027  81.2961  42.8350 0059714 114.6266 246.1140 14.07788449627128

Acompanhe SL-3 R/B em tempo real com AllMySat

Download on the App Store